Hourly Data Report for July 04, 2021

TORONTO CITY CENTRE
ONTARIO
Current Station Operator: NAVCAN

43°37'39.000" N
79°23'46.000" W
76.80 m
6158359
71265
YTZ

Download Data

Hourly Data (July 2021)
Hourly Data Report for July 4, 2021
TIME
LST
Temp Definition
°C
Dew Point Definition
°C
Rel Hum Definition
%
Precip. Amount Definition
mm

Wind Dir Definition
10's deg

Wind Spd Definition
km/h
Visibility Definition
km
Stn Press Definition
kPa
Hmdx Definition


Wind Chill Definition


Weather Definition


00:00 17.9 15.9 88 0.0 23 9 16.1 100.11     LegendNANA
01:00 18.5 16.2 86 0.0   0 4.8 100.10     Haze
02:00 18.7 16.7 88 0.0   0 4.8 100.09     Fog
03:00 17.9 16.7 93 0.0 LegendMM 4 16.1 100.09     LegendNANA
04:00 17.9 16.3 90 0.0 8 9 2.0 100.12     Fog
05:00 17.1 16.1 94 0.0 20 8 16.1 100.19     LegendNANA
06:00 18.5 16.7 89 0.0 4 9 0.8 100.23     Fog
07:00 19.1 17.5 90 0.0 7 24 0.0 100.28     Fog
08:00 19.4 17.6 89 0.0 7 22 0.6 100.34     Fog
09:00 19.8 17.7 88 0.0 6 26 0.8 100.38     Fog
10:00 19.7 17.2 85 0.0 7 22 1.2 100.42     Haze
11:00 20.4 17.3 82 0.0 7 21 16.1 100.46 26   LegendNANA
12:00 20.6 16.9 79 0.0 7 21 16.1 100.46 26   LegendNANA
13:00 20.9 16.9 78 0.0 7 22 16.1 100.48 26   LegendNANA
14:00 20.6 16.9 79 0.0 8 21 16.1 100.48 26   LegendNANA
15:00 21.4 15.3 68 0.0 8 17 16.1 100.47 26   LegendNANA
16:00 21.3 15.0 67 0.0 8 17 16.1 100.45 25   LegendNANA
17:00 21.1 16.5 75 0.0 7 18 16.1 100.44 26   LegendNANA
18:00 20.8 16.6 77 0.0 7 15 16.1 100.47 26   LegendNANA
19:00 19.8 16.3 80 0.0 8 15 16.1 100.50     LegendNANA
20:00 18.9 16.4 85 0.0 6 15 16.1 100.50     LegendNANA
21:00 19.5 14.4 72 0.0 7 13 16.1 100.50     LegendNANA
22:00 19.5 14.2 71 0.0 8 13 16.1 100.51     LegendNANA
23:00 19.4 15.1 76 0.0 7 17 16.1 100.55     LegendNANA

Notes on Data Quality.

Legend

  • E = Estimated
  • M = Missing
  • NA = Not Available*
  • [empty] = Indicates an unobserved value
Date modified: